www.pogodaiklimat.ru

Погода и климат >> Архив погоды >> Австралия >> Квинсленд >> Камоауил


ПОГОДА в Камоауиле

  • Прогноз погоды в Камоауиле
  • Монитор погоды в Камоауиле

АРХИВ ПОГОДЫ в Камоауиле

Время (UTC), дата Ветер
(напр.,м/с)
 
Видим.   Явления Облачность Т
(С)
Тd
(С)
f
(%)
Тe
(С)
Тes
(С)
Комфортность P
(гПа)
Po
(гПа)
Тmin
(С)
Tmax
(С)
R
(мм)
R24
(мм)
S
(см)
02 17.03 Ю 4 н/о н/о +34.9 -1.2 10 +31 +31 жарко 1010.1 984.2 +21.8
03 17.03 ЮЗ 4 н/о н/о +36.0 -0.4 10 +32 +32 жарко 1009.1 983.2
05 17.03 Ю 5 н/о н/о +36.7 -2.9 8 +33 +33 жарко 1007.6 981.8
06 17.03 Ю 4 н/о н/о +36.6 -3.0 8 +33 +33 жарко 1007.0 981.2
08 17.03 Ю 4 н/о н/о +36.2 -3.3 8 +32 +32 жарко 1007.4 981.6
09 17.03 Ю 4 н/о н/о +33.7 -3.5 9 +30 +30 жарко 1007.6 981.8
11 17.03 Ю 1 н/о н/о +27.6 -1.3 15 +25 +25 комфорт 1009.1 983.2
12 17.03 ЮВ 2 н/о н/о +26.2 -1.6 16 +24 +24 комфорт 1009.7 983.8
14 17.03 ЮЗ 2 н/о н/о +23.7 +1.4 23 +23 +23 комфорт 1010.2 984.3 +38.1
15 17.03 ЮЗ 2 н/о н/о +22.4 -1.0 21 +21 +21 комфорт 1010.0 984.1
17 17.03 Ю 2 н/о н/о +19.9 -1.2 24 +20 +20 1009.2 983.3
18 17.03 Ю 2 н/о н/о +19.8 +0.3 27 +21 +21 комфорт 1009.2 983.3
20 17.03 ЮВ 3 н/о н/о +19.4 +1.4 30 +20 +20 1009.4 983.5
21 17.03 В 3 н/о н/о +22.0 +2.2 27 +22 +22 комфорт 1009.6 983.7
23 17.03 В 2 н/о н/о +31.5 +3.5 17 +29 +29 жарко 1010.5 984.6
00 18.03 В 2 н/о н/о +34.1 +1.8 13 +31 +31 жарко 1010.4 984.5
02 18.03 Ю 4 н/о н/о +36.6 +0.1 10 +33 +33 жарко 1009.2 983.3 +19.4
03 18.03 В 3 н/о н/о +37.5 +0.7 10 +34 +34 очень
жарко
1008.0 982.2
05 18.03 ЮВ 3 н/о н/о +37.7 -0.6 9 +34 +34 очень
жарко
1006.2 980.4
06 18.03 ЮЗ 2 н/о н/о +37.9 -0.4 9 +34 +34 очень
жарко
1005.5 979.7
08 18.03 ЮВ 5 н/о н/о +37.4 -0.8 9 +34 +34 очень
жарко
1005.5 979.7
09 18.03 ЮВ 3 н/о н/о +34.7 -1.4 10 +31 +31 жарко 1005.9 980.1
11 18.03 В 3 н/о н/о +30.0 -0.4 14 +27 +27 жарко 1007.2 981.4
12 18.03 В 3 н/о н/о +28.7 -0.5 15 +26 +26 жарко 1007.9 982.1
14 18.03 В 3 н/о н/о +26.7 +1.9 20 +25 +25 комфорт 1008.5 982.6 +39.0
15 18.03 штиль 0 н/о н/о +24.4 +4.2 27 +24 +24 комфорт 1008.0 982.2
17 18.03 штиль 0 н/о н/о +21.8 +4.8 33 +22 +22 комфорт 1007.0 981.2
18 18.03 штиль 0 н/о н/о +22.0 +5.0 33 +22 +22 комфорт 1006.9 981.1
20 18.03 Ю 2 н/о н/о +19.3 +3.9 36 +20 +20 1007.3 981.5
21 18.03 ЮЗ 3 н/о н/о +19.8 +3.1 33 +21 +21 комфорт 1007.9 982.1
23 18.03 ЮВ 4 н/о н/о +29.0 +4.5 21 +27 +27 жарко 1009.6 983.7
00 19.03 Ю 2 н/о н/о +33.6 +5.2 17 +31 +31 жарко 1009.6 983.7
02 19.03 В 3 н/о н/о +36.3 +7.4 17 +34 +34 очень
жарко
1008.1 982.3 +19.2
03 19.03 ЮВ 4 н/о н/о +38.0 +6.9 15 +36 +36 очень
жарко
1007.1 981.3
05 19.03 ЮВ 4 н/о н/о +39.5 +9.9 17 +38 +38 очень
жарко
1005.0 979.2
06 19.03 Ю 5 н/о н/о +39.2 +10.5 18 +38 +38 очень
жарко
1004.2 978.5
08 19.03 ЮВ 5 н/о н/о +38.2 +12.0 21 +38 +38 очень
жарко
1004.1 978.4
09 19.03 ЮВ 4 н/о н/о +36.6 +10.7 21 +36 +36 очень
жарко
1004.9 979.1
11 19.03 ЮВ 2 н/о н/о +32.8 +11.3 27 +33 +33 жарко 1006.6 980.8
12 19.03 В 4 н/о н/о +32.3 +10.9 27 +32 +32 жарко 1007.3 981.5
14 19.03 СВ 3 н/о н/о +30.2 +11.7 32 +31 +31 жарко 1007.6 981.8 +40.3
15 19.03 СВ 3 н/о н/о +29.8 +12.3 34 +31 +31 жарко 1007.1 981.3
17 19.03 СВ 2 н/о н/о +28.1 +13.6 41 +30 +30 жарко 1006.3 980.5
18 19.03 С 2 н/о н/о +26.8 +14.2 46 +29 +29 жарко 1006.0 980.2
20 19.03 штиль 0 н/о н/о +24.7 +13.6 50 +27 +27 жарко 1007.0 981.2
21 19.03 Ю 4 н/о н/о +26.2 +15.9 53 +29 +29 жарко 1008.4 982.5
23 19.03 С 2 н/о н/о +30.6 +19.6 52 +37 +37 очень
душно
1009.8 983.9
00 20.03 З 2 н/о н/о +32.0 +20.3 50 +39 +39 очень
душно
1010.3 984.4
02 20.03 ЮЗ 3 н/о н/о +35.2 +19.1 39 +40 +40 очень
душно
1008.8 982.9 +23.5
03 20.03 ЮВ 6 н/о н/о +37.3 +17.8 32 +41 +41 опасность
перегрева
1007.4 981.6
05 20.03 ЮВ 7 н/о н/о +38.6 +13.8 23 +39 +39 душно 1005.3 979.5
06 20.03 В 6 н/о н/о +39.6 +14.6 23 +40 +40 очень
душно
1004.5 978.7
08 20.03 ЮВ 5 н/о н/о +38.4 +12.9 22 +38 +38 очень
жарко
1004.2 978.5
09 20.03 ЮВ 4 н/о н/о +36.7 +12.8 24 +37 +37 очень
жарко
1004.8 979.0
11 20.03 В 3 н/о н/о +33.7 +13.2 29 +34 +34 очень
жарко
1006.5 980.7
12 20.03 СВ 4 н/о н/о +33.7 +14.2 31 +35 +35 очень
жарко
1007.1 981.3
14 20.03 СВ 3 н/о н/о +31.3 +14.9 37 +33 +33 жарко 1007.3 981.5 +40.7
15 20.03 СВ 2 н/о н/о +30.4 +15.3 40 +33 +33 душно 1006.7 980.9
17 20.03 С 1 н/о н/о +27.1 +17.6 56 +31 +31 душно 1006.0 980.2
18 20.03 штиль 0 н/о н/о +26.8 +15.2 49 +30 +30 душно 1005.9 980.1
20 20.03 Ю 1 н/о н/о +25.9 +15.6 53 +29 +29 душно 1007.3 981.5
21 20.03 штиль 0 н/о н/о +27.2 +16.8 53 +31 +31 душно 1007.7 981.9
23 20.03 СВ 4 н/о н/о +32.0 +19.3 47 +38 +38 очень
душно
1009.5 983.6
00 21.03 СВ 4 н/о н/о +33.7 +20.5 46 +40 +40 очень
душно
1009.5 983.6
02 21.03 С 3 н/о н/о +35.1 +18.2 37 +39 +39 очень
душно
1007.9 982.1 +25.9
03 21.03 В 4 н/о н/о +37.9 +17.8 31 +41 +41 опасность
перегрева
1006.5 980.7
05 21.03 ЮВ 6 н/о н/о +38.3 +13.5 23 +39 +39 очень
душно
1004.2 978.5
06 21.03 ЮВ 5 н/о н/о +39.6 +13.2 21 +40 +40 очень
душно
1003.5 977.8
08 21.03 ЮВ 7 н/о н/о +38.3 +12.8 22 +38 +38 очень
жарко
1003.7 978.0
09 21.03 В 4 н/о н/о +36.3 +13.1 25 +37 +37 очень
жарко
1004.2 978.5
11 21.03 В 4 н/о н/о +35.3 +14.0 28 +36 +36 очень
жарко
1006.1 980.3
12 21.03 В 4 н/о н/о +34.1 +15.1 32 +36 +36 душно 1006.6 980.8
14 21.03 СВ 3 н/о н/о +31.8 +15.3 37 +34 +34 душно 1006.5 980.7 +40.2
15 21.03 В 3 н/о н/о +30.9 +15.3 39 +33 +33 душно 1006.3 980.5
17 21.03 С 3 н/о н/о +29.2 +19.8 57 +35 +35 очень
душно
1006.2 980.4
18 21.03 СВ 3 н/о н/о +28.5 +20.0 60 +35 +35 очень
душно
1006.5 980.7
23 21.03 В 4 н/о н/о +30.8 +19.5 51 +37 +37 очень
душно
1009.1 983.2
02 22.03 В 6 н/о н/о +36.7 +15.8 29 +39 +39 очень
душно
1007.7 981.9 +25.8
03 22.03 В 7 н/о н/о +37.5 +15.9 28 +39 +39 очень
душно
1006.2 980.4
05 22.03 В 7 н/о н/о +38.4 +14.2 24 +39 +39 очень
душно
1003.8 978.1
06 22.03 В 7 н/о н/о +38.4 +14.9 25 +39 +39 очень
душно
1003.3 977.6
08 22.03 В 7 н/о н/о +35.9 +17.1 33 +39 +39 очень
душно
1004.1 978.4
09 22.03 В 7 н/о н/о +33.6 +17.7 39 +37 +37 очень
душно
1004.8 979.0
11 22.03 В 7 н/о н/о +31.2 +18.5 47 +36 +36 очень
душно
1006.5 980.7
12 22.03 СВ 6 н/о н/о +30.8 +19.5 51 +37 +37 очень
душно
1007.2 981.4
14 22.03 В 6 н/о н/о +29.5 +19.2 54 +35 +35 очень
душно
1006.9 981.1 +39.2
15 22.03 В 6 н/о н/о +29.2 +18.9 54 +35 +35 очень
душно
1007.0 981.2
17 22.03 В 5 н/о н/о +28.7 +18.8 55 +34 +34 очень
душно
1006.3 980.5
18 22.03 В 6 н/о н/о +28.3 +18.7 56 +33 +33 очень
душно
1006.1 980.3
20 22.03 В 7 н/о н/о +27.7 +19.5 61 +33 +33 очень
душно
1006.6 980.8
21 22.03 В 7 н/о н/о +27.5 +19.6 62 +33 +33 очень
душно
1006.4 980.6
23 22.03 В 9 н/о н/о +29.2 +19.8 57 +35 +35 очень
душно
1007.9 982.1
00 23.03 В 10 н/о н/о +29.7 +20.0 56 +36 +36 очень
душно
1008.2 982.4
02 23.03 В 10 н/о н/о +32.6 +19.8 47 +39 +39 очень
душно
1007.0 981.2 +27.6
03 23.03 В 10 н/о н/о +32.6 +19.5 46 +38 +38 очень
душно
1006.4 980.6
05 23.03 В 8 н/о н/о +30.4 +20.0 54 +37 +37 очень
душно
1005.1 979.3
06 23.03 В 9 н/о н/о +30.4 +20.0 54 +37 +37 очень
душно
1004.8 979.0
08 23.03 В 9 н/о н/о +29.0 +20.7 61 +36 +36 очень
душно
1005.6 979.8
09 23.03 В 6 н/о н/о +26.4 +22.3 78 +34 +34 очень
душно
1005.5 979.7
11 23.03 В 8 н/о н/о +26.7 +21.2 72 +34 +34 очень
душно
1006.6 980.8
12 23.03 В 9 н/о н/о +26.6 +21.4 73 +34 +34 очень
душно
1006.9 981.1
14 23.03 В 6 н/о н/о +26.1 +22.2 79 +34 +34 очень
душно
1006.2 980.4 +33.8
15 23.03 В 8 н/о н/о +26.1 +22.4 80 +34 +34 очень
душно
1005.8 980.0
17 23.03 В 7 н/о н/о +25.5 +22.6 84 +34 +34 очень
душно
1005.1 979.3
18 23.03 В 7 н/о н/о +24.8 +22.5 87 +32 +32 очень
душно
1005.0 979.2
20 23.03 СВ 7 н/о в посл. час дождь {туман} н/о +24.2 +23.2 94 +32 +32 очень
душно
1005.7 979.9
21 23.03 В 8 н/о н/о +24.2 +22.8 92 +32 +32 очень
душно
1005.7 979.9
23 23.03 СВ 8 н/о {туман} н/о +25.5 +22.2 82 +33 +33 очень
душно
1007.1 981.3
00 24.03 СВ 9 н/о н/о +27.0 +22.4 76 +35 +35 очень
душно
1007.1 981.3

 

Местоположение метеостанции Камоауил (Квинсленд, Австралия): широта -19.91 долгота 138.11 высота над уровнем моря 231 м.

В архиве по умолчанию представлена погода в Камоауиле за последнюю неделю. Архивные данные за месяц целиком и за предыдущие месяцы, начиная с января 2011 года, Вы можете получить, выбрав интересующий диапазон дат из раскрывающегося списка и нажав кнопку "Ввод!".


*Определитесь, кто Вы:
робот инопланетянин человек

Внимание! Время в таблицах - всемирное. Для получения местного времени необходимо прибавить поправку, которая равна 10 ч.

Смотрите также архив погоды в соседних городах и на ближайших метеорологических станциях:

Погода на Руднике Century Mine (Квинсленд, Австралия) (143 км)
Погода в Нью Мэй Даун (Квинсленд, Австралия) (149 км)
Погода на Маунт-Айза (Квинсленд, Австралия) (167 км)
Погода на Озере Джулиус (Квинсленд, Австралия) (171 км)
Погода в Клонкарри (Квинсленд, Австралия) (263 км)
Погода в Фосфат-Хилл (Квинсленд, Австралия) (282 км)
Погода в Беркетауне (Квинсленд, Австралия) (283 км)
Погода в Аэропорту Трепелл (Квинсленд, Австралия) (358 км)
Погода на Острове Морнингтон (Квинсленд, Австралия) (378 км)
Погода в Джулия Крик (Квинсленд, Австралия) (387 км)

Пояснения к столбцам:

Ветер - указаны скорость ветра в м/с - средняя за 10 мин, порывы в срок и между сроками (в фигурных скобках) и направление, откуда дует ветер: С - северный, СВ - северо-восточный, В - восточный, ЮВ - юго-восточный, Ю - южный, ЮЗ - юго-западный, З - западный, СЗ - северо-западный.
Видимость - горизонтальная дальность видимости в метрах или километрах. При видимости от 1 до 10 км при отсутствии осадков обычно наблюдается дымка, при ухудшении видимости до 1 км и менее - туман. В сухую погоду видимость может ухудшаться дымом, пылью или мглою.
Явления - указаны атмосферные явления, наблюдавшиеся в срок или в последний час перед сроком; фигурными скобками обозначены явления, наблюдавшиеся между сроками (за 1-3 часа до срока); квадратными скобками обозначены град или гололедные отложения с указанием их диаметра в мм.
Облачность - указаны через наклонную черту общая и нижняя облачность в баллах и высота нижней границы облаков в метрах; квадратными скобками обозначены формы облаков: Ci - перистые, Cs - перисто-слоистые, Cc - перисто-кучевые, Ac - высококучевые, As - высокослоистые, Sc - слоисто-кучевые, Ns - слоисто-дождевые, Cu - кучевые, Cb - кучево-дождевые. Подробнее классификацию облаков см. в Атласе облаков (PDF).
T - Температура воздуха - температура, измеренная на высоте 2 м над землей.
Td - Температура точки росы - температура, при понижении до которой содержащийся в воздухе водяной пар достигнет насыщения.
f - Относительная влажность воздуха - влажноcть воздуха, измеренная на высоте 2 м над землей.
Te - Эффективная температура - температура, которую ощущает одетый по сезону человек в тени. Характеристика душности погоды. При расчете учитывается влияние влажности воздуха и скорости ветра на теплоощущения человека.
Tes - Эффективная температура на солнце - температура, которую ощущает человек, с поправкой на солнечный нагрев. Характеристика знойности погоды. Зависит от высоты солнца над горизонтом, облачности и скорости ветра. Ночью, в пасмурную погоду, а также при ветре 12 м/с и более поправка равна нулю.
P - Атмосферное давление - приведенное к уровню моря атмосферное давление.
Po - Атмосферное давление - измеренное на уровне метеостанции атмосферное давление.
Tmin - Минимальная температура - минимум температуры воздуха на высоте 2 м над землей.
Tmax - Максимальная температура - максимум температуры воздуха на высоте 2 м над землей.
R - Количество осадков - Количество выпавших осадков за период времени, мм. При наведении курсора мыши на число - период времени, за который выпало указанное количество осадков.
R24 - Количество осадков - Количество выпавших осадков за 24 часа, мм.
S - Снежный покров - Высота снежного покрова, см. При наведении курсора мыши на число - состояние снежного покрова и степень покрытия местности в баллах.